• în Republica Moldova
  • Lista ţărilor
  • Pe 7 zile
  • Temperatura apei
  • Hartă satelitară
  • Meteo pe hartă
  • Widget-uri
  • user-avatar
    Intrare

    Meteo pe oră la Coasta de Aur

    Astăzi, 16 August, Joi

    Timp Temperatura Precipitaţii Vânt Presiune Umiditate
    00:00 +13°C° 0 mm 4 m/s 758 mmHg 48%
    01:00 +13°C° 0 mm 4 m/s 758 mmHg 47%
    02:00 +12°C° 0 mm 4 m/s 758 mmHg 46%
    03:00 +12°C° 0 mm 4 m/s 757 mmHg 45%
    04:00 +12°C° 0 mm 4 m/s 757 mmHg 45%
    05:00 +12°C° 0 mm 4 m/s 757 mmHg 45%
    06:00 +12°C° 0 mm 4 m/s 757 mmHg 46%
    07:00 +12°C° 0 mm 4 m/s 757 mmHg 47%
    08:00 +17°C° 0 mm 4 m/s 757 mmHg 40%
    09:00 +21°C° 0 mm 4 m/s 757 mmHg 32%
    10:00 +25°C° 0 mm 3 m/s 757 mmHg 23%
    11:00 +27°C° 0 mm 3 m/s 756 mmHg 21%
    12:00 +28°C° 0 mm 4 m/s 756 mmHg 18%
    13:00 +29°C° 0 mm 4 m/s 755 mmHg 16%
    14:00 +29°C° 0 mm 4 m/s 755 mmHg 19%
    15:00 +28°C° 0 mm 4 m/s 755 mmHg 21%
    16:00 +27°C° 0 mm 4 m/s 754 mmHg 24%
    17:00 +23°C° 0 mm 4 m/s 754 mmHg 28%
    18:00 +21°C° 0 mm 4 m/s 755 mmHg 31%
    19:00 +18°C° 0 mm 4 m/s 755 mmHg 35%
    20:00 +18°C° 0 mm 3 m/s 755 mmHg 35%
    21:00 +17°C° 0 mm 3 m/s 756 mmHg 36%
    22:00 +16°C° 0 mm 3 m/s 756 mmHg 36%
    23:00 +16°C° 0 mm 3 m/s 756 mmHg 37%

    Mâine, 17 August, Vineri

    Timp Temperatura Precipitaţii Vânt Presiune Umiditate
    00:00 +14°C° 0 mm 3 m/s 756 mmHg 38%
    01:00 +13°C° 0 mm 3 m/s 756 mmHg 39%
    02:00 +13°C° 0 mm 3 m/s 756 mmHg 39%
    03:00 +13°C° 0 mm 3 m/s 756 mmHg 40%
    04:00 +12°C° 0 mm 3 m/s 756 mmHg 40%
    05:00 +12°C° 0 mm 3 m/s 756 mmHg 41%
    06:00 +13°C° 0 mm 2 m/s 756 mmHg 42%
    07:00 +13°C° 0 mm 2 m/s 757 mmHg 42%
    08:00 +17°C° 0 mm 2 m/s 757 mmHg 38%
    09:00 +20°C° 0 mm 2 m/s 757 mmHg 33%
    10:00 +24°C° 0 mm 2 m/s 757 mmHg 29%
    11:00 +26°C° 0 mm 2 m/s 757 mmHg 28%
    12:00 +27°C° 0 mm 2 m/s 756 mmHg 26%
    13:00 +29°C° 0 mm 3 m/s 755 mmHg 25%
    14:00 +28°C° 0 mm 3 m/s 755 mmHg 27%
    15:00 +27°C° 0 mm 4 m/s 755 mmHg 29%
    16:00 +27°C° 0 mm 4 m/s 754 mmHg 31%
    17:00 +24°C° 0 mm 3 m/s 755 mmHg 36%
    18:00 +21°C° 0 mm 3 m/s 755 mmHg 41%
    19:00 +19°C° 0 mm 2 m/s 756 mmHg 46%
    20:00 +18°C° 0 mm 3 m/s 756 mmHg 48%
    21:00 +17°C° 0 mm 3 m/s 757 mmHg 50%
    22:00 +16°C° 0 mm 3 m/s 757 mmHg 52%
    23:00 +14°C° 0 mm 3 m/s 757 mmHg 53%

    Poimâine, 18 August, Sâmbătă

    Timp Temperatura Precipitaţii Vânt Presiune Umiditate
    00:00 +14°C° 0 mm 3 m/s 757 mmHg 55%
    01:00 +13°C° 0 mm 4 m/s 757 mmHg 56%
    02:00 +12°C° 0 mm 3 m/s 757 mmHg 56%
    03:00 +12°C° 0 mm 3 m/s 757 mmHg 57%
    04:00 +11°C° 0 mm 3 m/s 757 mmHg 57%
    05:00 +12°C° 0 mm 3 m/s 757 mmHg 57%
    06:00 +12°C° 0 mm 3 m/s 758 mmHg 56%
    07:00 +13°C° 0 mm 2 m/s 758 mmHg 56%
    08:00 +16°C° 0 mm 3 m/s 758 mmHg 48%
    09:00 +19°C° 0 mm 3 m/s 758 mmHg 39%
    10:00 +22°C° 0 mm 3 m/s 758 mmHg 31%
    11:00 +25°C° 0 mm 3 m/s 758 mmHg 28%
    12:00 +26°C° 0 mm 3 m/s 757 mmHg 25%
    13:00 +27°C° 0 mm 4 m/s 756 mmHg 22%
    14:00 +27°C° 0 mm 4 m/s 755 mmHg 23%
    15:00 +27°C° 0 mm 4 m/s 755 mmHg 25%
    16:00 +26°C° 0 mm 4 m/s 755 mmHg 26%
    17:00 +23°C° 0 mm 4 m/s 755 mmHg 30%
    18:00 +20°C° 0 mm 4 m/s 756 mmHg 34%
    19:00 +18°C° 0 mm 4 m/s 756 mmHg 38%
    20:00 +17°C° 0 mm 4 m/s 756 mmHg 38%
    21:00 +17°C° 0 mm 4 m/s 757 mmHg 39%
    22:00 +15°C° 0 mm 4 m/s 757 mmHg 39%
    23:00 +14°C° 0 mm 5 m/s 757 mmHg 40%

    19 August, Duminică

    Timp Temperatura Precipitaţii Vânt Presiune Umiditate
    00:00 +14°C° 0 mm 5 m/s 757 mmHg 41%
    01:00 +13°C° 0 mm 5 m/s 757 mmHg 42%
    02:00 +13°C° 0 mm 5 m/s 757 mmHg 45%
    03:00 +12°C° 0 mm 5 m/s 757 mmHg 49%
    04:00 +10°C° 0 mm 5 m/s 757 mmHg 52%
    05:00 +10°C° 0 mm 5 m/s 757 mmHg 52%
    06:00 +10°C° 0 mm 5 m/s 758 mmHg 52%
    07:00 +9°C° 0 mm 5 m/s 758 mmHg 52%
    08:00 +12°C° 0 mm 5 m/s 758 mmHg 44%
    09:00 +15°C° 0 mm 5 m/s 758 mmHg 36%
    10:00 +17°C° 0 mm 5 m/s 758 mmHg 27%
    11:00 +19°C° 0 mm 6 m/s 758 mmHg 25%
    12:00 +20°C° 0 mm 6 m/s 757 mmHg 22%
    13:00 +21°C° 0 mm 6 m/s 756 mmHg 20%
    14:00 +20°C° 0 mm 6 m/s 756 mmHg 20%
    15:00 +18°C° 0 mm 7 m/s 755 mmHg 20%
    16:00 +18°C° 0 mm 7 m/s 755 mmHg 20%
    17:00 +16°C° 0 mm 7 m/s 756 mmHg 23%
    18:00 +13°C° 0 mm 8 m/s 757 mmHg 26%
    19:00 +12°C° 0 mm 8 m/s 757 mmHg 29%
    20:00 +11°C° 0 mm 8 m/s 758 mmHg 32%
    21:00 +10°C° 0 mm 8 m/s 758 mmHg 34%
    22:00 +10°C° 0 mm 8 m/s 759 mmHg 36%
    23:00 +9°C° 0 mm 8 m/s 758 mmHg 37%

    20 August, Luni

    Timp Temperatura Precipitaţii Vânt Presiune Umiditate
    00:00 +9°C° 0 mm 8 m/s 758 mmHg 38%
    01:00 +8°C° 0 mm 7 m/s 758 mmHg 40%
    02:00 +8°C° 0 mm 7 m/s 758 mmHg 42%
    03:00 +6°C° 0 mm 7 m/s 757 mmHg 44%
    04:00 +6°C° 0 mm 7 m/s 757 mmHg 46%
    05:00 +6°C° 0 mm 7 m/s 758 mmHg 46%
    06:00 +6°C° 0 mm 7 m/s 758 mmHg 45%
    07:00 +6°C° 0 mm 7 m/s 759 mmHg 45%
    08:00 +9°C° 0 mm 7 m/s 759 mmHg 39%
    09:00 +11°C° 0 mm 7 m/s 759 mmHg 33%
    10:00 +15°C° 0 mm 6 m/s 759 mmHg 27%
    11:00 +16°C° 0 mm 6 m/s 759 mmHg 25%
    12:00 +19°C° 0 mm 5 m/s 758 mmHg 23%
    13:00 +20°C° 0 mm 5 m/s 757 mmHg 22%
    14:00 +20°C° 0 mm 4 m/s 757 mmHg 21%
    15:00 +20°C° 0 mm 4 m/s 757 mmHg 21%
    16:00 +20°C° 0 mm 3 m/s 757 mmHg 21%
    17:00 +18°C° 0 mm 3 m/s 758 mmHg 27%
    18:00 +15°C° 0 mm 2 m/s 758 mmHg 33%
    19:00 +13°C° 0 mm 2 m/s 759 mmHg 39%
    20:00 +12°C° 0 mm 2 m/s 759 mmHg 40%
    21:00 +10°C° 0 mm 3 m/s 760 mmHg 41%
    22:00 +10°C° 0 mm 3 m/s 760 mmHg 41%
    23:00 +9°C° 0 mm 3 m/s 760 mmHg 41%

    21 August, Marţi

    Timp Temperatura Precipitaţii Vânt Presiune Umiditate
    00:00 +8°C° 0 mm 4 m/s 759 mmHg 42%
    01:00 +7°C° 0 mm 4 m/s 759 mmHg 42%
    02:00 +7°C° 0 mm 4 m/s 759 mmHg 44%
    03:00 +6°C° 0 mm 4 m/s 759 mmHg 46%
    04:00 +6°C° 0 mm 4 m/s 759 mmHg 48%
    05:00 +6°C° 0 mm 4 m/s 759 mmHg 47%
    06:00 +7°C° 0 mm 3 m/s 760 mmHg 47%
    07:00 +7°C° 0 mm 3 m/s 760 mmHg 47%
    08:00 +10°C° 0 mm 3 m/s 760 mmHg 39%
    09:00 +13°C° 0 mm 3 m/s 759 mmHg 31%
    10:00 +18°C° 0 mm 2 m/s 759 mmHg 23%
    11:00 +19°C° 0 mm 2 m/s 758 mmHg 20%
    12:00 +21°C° 0 mm 2 m/s 758 mmHg 18%
    13:00 +24°C° 0 mm 2 m/s 757 mmHg 15%
    14:00 +22°C° 0 mm 3 m/s 756 mmHg 17%
    15:00 +22°C° 0 mm 3 m/s 756 mmHg 18%
    16:00 +22°C° 0 mm 4 m/s 756 mmHg 20%
    17:00 +19°C° 0 mm 4 m/s 757 mmHg 26%
    18:00 +17°C° 0 mm 4 m/s 757 mmHg 31%
    19:00 +13°C° 0 mm 4 m/s 758 mmHg 37%
    20:00 +12°C° 0 mm 4 m/s 758 mmHg 39%
    21:00 +11°C° 0 mm 4 m/s 758 mmHg 41%
    22:00 +9°C° 0 mm 5 m/s 758 mmHg 43%
    23:00 +9°C° 0 mm 5 m/s 758 mmHg 45%
    Arată mai mult